HKE768 VHHH-WMKP

Flight info

Callsign HKE768
Flight time N/A
Altitude 38000
Route PECAN V12 EPDOS L642 EPKAL/K0835F380 L642 CN M765 BITOD/N0444F380 M765 VKB W546 BETNU BETNU1F
Aircraft A320/M-SDE3FGHIRWY/LB1

Departure

Time N/A
Airport Hong Kong International Airport (VHHH)

Arrival

Time 2026-04-30 13:21
Airport Penang International Airport (WMKP)
Time Latitude Longitude Altitude Speed Heading
2026-04-30 12:34 7.28744 104.17027 37899 ft 446 kts 240°
2026-04-30 12:34 7.27152 104.14338 37902 ft 447 kts 239°
2026-04-30 12:34 7.23951 104.08969 37905 ft 447 kts 239°
2026-04-30 12:35 7.20733 104.03613 37911 ft 447 kts 239°
2026-04-30 12:35 7.17513 103.98251 37911 ft 447 kts 239°
2026-04-30 12:36 7.14299 103.92886 37910 ft 447 kts 239°
2026-04-30 12:36 7.11080 103.87524 37911 ft 447 kts 239°
2026-04-30 12:37 7.07855 103.82157 37910 ft 448 kts 239°
2026-04-30 12:37 7.04632 103.76787 37908 ft 448 kts 239°
2026-04-30 12:38 7.01413 103.71420 37906 ft 448 kts 239°
2026-04-30 12:38 6.98191 103.66045 37904 ft 448 kts 239°
2026-04-30 12:39 6.94985 103.60704 37907 ft 449 kts 239°
2026-04-30 12:39 6.91758 103.55324 37907 ft 449 kts 239°
2026-04-30 12:40 6.88547 103.49925 37909 ft 449 kts 240°
2026-04-30 12:40 6.85354 103.44514 37896 ft 450 kts 240°
2026-04-30 12:41 6.82155 103.39094 37894 ft 451 kts 240°
2026-04-30 12:41 6.78940 103.33678 37893 ft 451 kts 240°
2026-04-30 12:42 6.75713 103.28260 37893 ft 451 kts 240°
2026-04-30 12:42 6.72491 103.22838 37898 ft 452 kts 240°
2026-04-30 12:43 6.69291 103.17437 37902 ft 452 kts 240°
2026-04-30 12:43 6.66060 103.12002 37912 ft 453 kts 239°
2026-04-30 12:44 6.62824 103.06561 37904 ft 454 kts 239°
2026-04-30 12:44 6.59577 103.01108 37901 ft 455 kts 239°
2026-04-30 12:45 6.56319 102.95650 37903 ft 455 kts 239°
2026-04-30 12:45 6.53071 102.90197 37900 ft 455 kts 239°
2026-04-30 12:46 6.49822 102.84727 37903 ft 455 kts 239°
2026-04-30 12:46 6.46551 102.79270 37908 ft 456 kts 238°
2026-04-30 12:47 6.43159 102.73877 37904 ft 456 kts 237°
2026-04-30 12:47 6.39722 102.68506 37905 ft 457 kts 237°
2026-04-30 12:48 6.36300 102.63104 37905 ft 458 kts 237°
2026-04-30 12:48 6.33475 102.58607 37901 ft 458 kts 237°
2026-04-30 12:49 6.30072 102.53186 37895 ft 458 kts 237°
2026-04-30 12:49 6.26106 102.46897 37883 ft 458 kts 237°
2026-04-30 12:50 6.22689 102.41483 37877 ft 459 kts 237°
2026-04-30 12:50 6.19273 102.36066 37882 ft 459 kts 237°
2026-04-30 12:51 6.16088 102.31830 37881 ft 456 kts 224°
2026-04-30 12:51 6.11064 102.27992 37881 ft 454 kts 212°
2026-04-30 12:52 6.05760 102.24543 37883 ft 454 kts 212°
2026-04-30 12:52 6.00455 102.21096 37886 ft 454 kts 212°
2026-04-30 12:53 5.95140 102.17644 37908 ft 454 kts 212°
2026-04-30 12:53 5.89835 102.14195 37912 ft 454 kts 212°
2026-04-30 12:54 5.84533 102.10743 37916 ft 454 kts 212°
2026-04-30 12:54 5.79251 102.07314 37915 ft 454 kts 212°
2026-04-30 12:55 5.73949 102.03869 37605 ft 454 kts 212°
2026-04-30 12:55 5.71302 102.02150 37350 ft 453 kts 212°
2026-04-30 12:55 5.68652 102.00430 36924 ft 454 kts 212°
2026-04-30 12:56 5.66003 101.98712 36408 ft 455 kts 212°
2026-04-30 12:56 5.63445 101.96824 35878 ft 458 kts 221°
2026-04-30 12:56 5.61250 101.94501 35391 ft 460 kts 232°
2026-04-30 12:56 5.59525 101.91849 34911 ft 459 kts 243°
2026-04-30 12:57 5.58279 101.88910 34453 ft 457 kts 253°
2026-04-30 12:57 5.57554 101.85814 33975 ft 454 kts 260°
2026-04-30 12:57 5.56988 101.82716 33457 ft 453 kts 260°
2026-04-30 12:57 5.56417 101.79601 32916 ft 451 kts 260°
2026-04-30 12:58 5.55850 101.76513 32408 ft 448 kts 260°
2026-04-30 12:58 5.55287 101.73441 31898 ft 446 kts 260°
2026-04-30 12:58 5.54729 101.70384 31557 ft 441 kts 260°
2026-04-30 12:58 5.54177 101.67373 31318 ft 438 kts 260°
2026-04-30 12:59 5.53625 101.64376 31085 ft 435 kts 260°
2026-04-30 12:59 5.53078 101.61409 30714 ft 431 kts 259°
2026-04-30 12:59 5.52531 101.58454 30233 ft 430 kts 259°
2026-04-30 12:59 5.51987 101.55510 29731 ft 429 kts 259°
2026-04-30 13:00 5.51444 101.52570 29266 ft 426 kts 259°
2026-04-30 13:00 5.50908 101.49659 28819 ft 423 kts 259°
2026-04-30 13:00 5.50375 101.46762 28381 ft 421 kts 259°
2026-04-30 13:00 5.49846 101.43890 27943 ft 418 kts 259°
2026-04-30 13:01 5.49318 101.41022 27513 ft 417 kts 259°
2026-04-30 13:01 5.48789 101.38167 27089 ft 415 kts 259°
2026-04-30 13:01 5.48261 101.35322 26668 ft 414 kts 259°
2026-04-30 13:01 5.47735 101.32482 26244 ft 413 kts 259°
2026-04-30 13:02 5.47207 101.29645 25814 ft 413 kts 259°
2026-04-30 13:02 5.46711 101.26983 25398 ft 413 kts 259°
2026-04-30 13:02 5.46193 101.24182 24961 ft 413 kts 259°
2026-04-30 13:02 5.45670 101.21348 24514 ft 413 kts 259°
2026-04-30 13:03 5.45145 101.18509 24046 ft 414 kts 259°
2026-04-30 13:03 5.44620 101.15669 23584 ft 414 kts 259°
2026-04-30 13:03 5.44094 101.12826 23043 ft 415 kts 259°
2026-04-30 13:03 5.43573 101.10020 22564 ft 401 kts 259°
2026-04-30 13:04 5.43068 101.07301 22118 ft 394 kts 259°
2026-04-30 13:04 5.42564 101.04596 21649 ft 392 kts 259°
2026-04-30 13:04 5.42065 101.01914 21194 ft 390 kts 259°
2026-04-30 13:04 5.41569 100.99246 20729 ft 388 kts 259°
2026-04-30 13:05 5.41073 100.96585 20270 ft 386 kts 259°
2026-04-30 13:05 5.40581 100.93937 19813 ft 385 kts 259°
2026-04-30 13:05 5.40093 100.91301 19365 ft 384 kts 259°
2026-04-30 13:06 5.39122 100.86054 18447 ft 381 kts 259°
2026-04-30 13:06 5.38637 100.83442 17960 ft 380 kts 259°
2026-04-30 13:06 5.38152 100.80839 17481 ft 378 kts 259°
2026-04-30 13:06 5.37673 100.78262 17123 ft 372 kts 259°
2026-04-30 13:07 5.37235 100.75732 16767 ft 367 kts 261°
2026-04-30 13:07 5.36889 100.73222 16334 ft 365 kts 263°
2026-04-30 13:07 5.36596 100.70703 15893 ft 363 kts 263°
2026-04-30 13:07 5.36324 100.68191 15455 ft 361 kts 263°
2026-04-30 13:08 5.36053 100.65694 15022 ft 359 kts 263°
2026-04-30 13:08 5.35772 100.63207 14589 ft 358 kts 263°
2026-04-30 13:08 5.35480 100.60727 14156 ft 357 kts 263°
2026-04-30 13:08 5.35180 100.58265 13729 ft 356 kts 263°
2026-04-30 13:09 5.34879 100.55818 13266 ft 354 kts 263°
2026-04-30 13:09 5.34578 100.53368 12834 ft 351 kts 263°
2026-04-30 13:09 5.34290 100.50990 12414 ft 336 kts 263°
2026-04-30 13:09 5.34014 100.48709 12020 ft 323 kts 263°
2026-04-30 13:10 5.33709 100.46520 11640 ft 311 kts 257°
2026-04-30 13:10 5.33005 100.44510 11275 ft 302 kts 242°
2026-04-30 13:10 5.31856 100.42753 10892 ft 302 kts 228°
2026-04-30 13:10 5.30330 100.41304 10504 ft 303 kts 218°
2026-04-30 13:11 5.28707 100.39959 10113 ft 305 kts 218°
2026-04-30 13:11 5.27071 100.38593 9739 ft 306 kts 218°
2026-04-30 13:11 5.25435 100.37219 9314 ft 308 kts 218°
2026-04-30 13:11 5.23790 100.35834 8910 ft 308 kts 219°
2026-04-30 13:12 5.22172 100.34470 8518 ft 299 kts 219°
2026-04-30 13:12 5.20605 100.33151 8129 ft 289 kts 218°
2026-04-30 13:12 5.19090 100.31880 7760 ft 279 kts 218°
2026-04-30 13:13 5.16094 100.29370 7019 ft 283 kts 218°
2026-04-30 13:13 5.14572 100.28098 6641 ft 286 kts 219°
2026-04-30 13:13 5.11482 100.25507 5845 ft 291 kts 219°
2026-04-30 13:14 5.09940 100.24217 5451 ft 293 kts 219°
2026-04-30 13:14 5.08384 100.22895 5134 ft 291 kts 223°
2026-04-30 13:14 5.07136 100.19270 4618 ft 275 kts 282°
2026-04-30 13:15 5.07806 100.17546 4433 ft 258 kts 304°
2026-04-30 13:15 5.10178 100.15306 4176 ft 221 kts 335°
2026-04-30 13:15 5.11600 100.14774 4060 ft 213 kts 349°
2026-04-30 13:16 5.13020 100.14614 3951 ft 201 kts
2026-04-30 13:16 5.14353 100.14775 3873 ft 183 kts 15°
2026-04-30 13:16 5.15528 100.15178 3584 ft 176 kts 26°
2026-04-30 13:17 5.17335 100.16472 3033 ft 148 kts 43°
2026-04-30 13:17 5.18092 100.17158 2706 ft 145 kts 43°
2026-04-30 13:17 5.19403 100.18346 2327 ft 159 kts 43°
2026-04-30 13:18 5.20512 100.19349 2029 ft 161 kts 43°
2026-04-30 13:18 5.22165 100.20846 1621 ft 161 kts 43°
2026-04-30 13:18 5.22993 100.21596 1413 ft 160 kts 43°
2026-04-30 13:19 5.23828 100.22352 1200 ft 159 kts 43°
2026-04-30 13:19 5.24639 100.23087 1001 ft 159 kts 43°
2026-04-30 13:19 5.25460 100.23830 833 ft 159 kts 43°
2026-04-30 13:19 5.25949 100.24281 724 ft 151 kts 43°
2026-04-30 13:20 5.26736 100.24975 523 ft 145 kts 41°
2026-04-30 13:20 5.27465 100.25639 352 ft 142 kts 41°
2026-04-30 13:20 5.28197 100.26309 161 ft 142 kts 41°
2026-04-30 13:20 5.28928 100.26968 28 ft 136 kts 42°
2026-04-30 13:21 5.29512 100.27498 24 ft 89 kts 42°
2026-04-30 13:21 5.29840 100.27792 29 ft 33 kts 34°
2026-04-30 13:21 5.29954 100.27819 25 ft 10 kts 18°
2026-04-30 13:22 5.30126 100.27822 23 ft 15 kts 287°
2026-04-30 13:22 5.30060 100.27739 23 ft 17 kts 222°
2026-04-30 13:22 5.29855 100.27550 23 ft 23 kts 222°
2026-04-30 13:23 5.29736 100.27441 23 ft 22 kts 222°
2026-04-30 13:23 5.29507 100.27232 23 ft 24 kts 222°
2026-04-30 13:24 5.29339 100.27048 23 ft 12 kts 278°
2026-04-30 13:24 5.29379 100.26897 23 ft 10 kts 219°
2026-04-30 13:25 5.29308 100.26834 23 ft 6 kts 221°
2026-04-30 13:25 5.29181 100.26720 23 ft 1 kts 225°
2026-04-30 13:26 5.29213 100.26658 23 ft 2 kts 314°
2026-04-30 13:26 5.29222 100.26649 23 ft 0 kts 312°